Погода в Варшаве

Польша     52°13′55″N   21°00′25″E
темп.,
°C
ветер,
м/с
пор.,
м/с
влажн.,
%
обл.,
%
осадки,
мм/ч
давл.,
гПа
погр.,
м
28 февраля, вс
вс2801:000зсз39860 0.0 1034303
04:000зсз378210 0.0 1033257
07:000з498036 0.0 1033300
10:00+3з497550 0.0 1031418
13:00+7зсз6106955 0.0 1030857
16:00+4сз598199 0.0 1029779
19:00+4сз4108398 0.0 1030661
22:00+2сз499189 0.0 1031410
1 марта, пн
пн101:00+1сз259461 0.0 1033169
04:000сз23951 0.0 103390
07:00+1сз22940 0.0 103478
10:00+4зсз23760 0.0 1034256
13:00+8зсз34640 0.0 1034532
16:00+8з36660 0.0 1033551
19:00+5зюз38790 0.0 1033229
22:00+4з310830 0.0 1033281
2 марта, вт
вт201:00+3з411880 0.0 1032304
04:00+2з410890 0.0 1031306
07:00+1з410900 0.0 1031310
10:00+5зсз47750 0.0 1031505
13:00+8зсз47665 0.0 1031668
16:00+9зсз47690 0.0 1030716
19:00+6зсз38850 0.0 1030326
22:00+4сз229465 0.0 103186
3 марта, ср
ср301:00+2зсз229634 0.0 103157
04:00+2зсз12960 0.0 103128
07:00+1з12975 0.0 103033
10:00+4з238981 0.0 1030286
13:00+7з236489 0.0 1029619
16:00+8з246320 0.0 1027681
19:00+5з127610 0.0 102623
22:00+4зюз12820 0.0 102523
4 марта, чт
чт401:00+3юз23820 0.0 102249
04:00+2юз23830 0.0 102061
07:00+2юз258010 0.0 1018136
10:00+7зюз486758 0.0 1016387
13:00+10зюз475757 0.0 1013848
16:00+10зюз4864100 0.0 1011884
19:00+7зюз3977100 0.0 1009400
22:00+7зюз4886100 0.5 1008360